Regional Weather Roundup
Issued by NWS

Home | Current Version | Previous Version | Graphics & Text | Print | Product List | Glossary On
Versions: 1 2 3 4 5 6 7 8 9 10 11 12 13 14 15 16 17 18 19 20 21 22 23 24 25 26 27 28 29 30 31 32 33 34 35 36 37 38 39 40 41 42 43 44 45 46 47 48 49 50
977
ASUS44 KMEG 242210
RWRTN
TENNESSEE HOURLY STATE WEATHER ROUNDUP
NATIONAL WEATHER SERVICE MEMPHIS TN
500 PM CDT SUN SEP 24 2017

TNZ002-004-019-021-049-052-054-088>092-242300-
WEST TENNESSEE

CITY           SKY/WX    TMP DP  RH WIND       PRES   REMARKS
MEMPHIS INTL   PTSUNNY   79  66  64 CALM      29.96R
NWS MEMPHIS      N/A    N/A N/A N/A MISG        N/A
JACKSON        CLOUDY    87  68  52 S5        29.97S HX  90
DYERSBURG      CLOUDY    72  69  90 CALM        N/A
SOMERVILLE     SUNNY     86  68  54 NE3       29.96S
COVINGTON      SUNNY     79  72  78 SE3       29.97S
BOLIVAR        MOSUNNY   81  66  61 NE6       29.96S HAZE
PARIS          SUNNY     88  66  48 SE8       29.97R HX  90
HUNTINGDON     SUNNY     88  66  48 S6        29.96S HX  90
LEXINGTON      SUNNY     84  68  58 CALM      29.97F
SELMER         SUNNY     84  66  54 E5        29.97F
SAVANNAH       SUNNY     86  66  51 CALM      29.96F
$$

TNZ008-025-027-028-033-062-065-066-242300-
NORTH MIDDLE TENNESSEE

CITY           SKY/WX    TMP DP  RH WIND       PRES   REMARKS
NASHVILLE      CLOUDY    86  63  45 SE6       30.00S
PORTLAND       SUNNY     84  70  61 CALM      30.00S
CLARKSVILLE    PTSUNNY   82  66  58 NE7       30.00S
SMYRNA         MOSUNNY   87  64  46 SW6       30.01F
COOKEVILLE     PTSUNNY   82  68  61 CALM      30.03S
GALLATIN       SUNNY     86  66  51 S3        30.02S
CROSSVILLE     MOSUNNY   80  62  54 NE3       30.08F
$$

TNZ061-075-076-078-094-096-097-242300-
SOUTH MIDDLE TENNESSEE

CITY           SKY/WX    TMP DP  RH WIND       PRES   REMARKS
FAYETTEVILLE   SUNNY     84  61  45 E6        30.01S
TULLAHOMA      MOSUNNY   84  61  45 E5        30.03F
WINCHESTER     SUNNY     82  66  57 SE5       30.02F
MCMINNVILLE    MOSUNNY   82  70  65 CALM      30.03F
COLUMBIA       SUNNY     86 N/A N/A SE5       29.97F
SHELBYVILLE    SUNNY     84  64  51 CALM      30.01S
$$

TNZ017-018-042-046-047-242300-
NORTHEAST TENNESSEE

CITY           SKY/WX    TMP DP  RH WIND       PRES   REMARKS
TRI CITIES     CLOUDY    88  59  37 N3        30.05S
ELIZABETHTON   CLOUDY    84  61  45 CALM      30.05S
$$

TNZ012-013-036-069-073-074-242300-
CENTRAL EAST TENNESSEE

CITY           SKY/WX    TMP DP  RH WIND       PRES   REMARKS
KNOXVILLE      MOSUNNY   86  60  41 N3        30.01F
OAK RIDGE      SUNNY     84  61  45 N3        30.04S
DOWNTOWN KNOXV SUNNY     84  66  54 CALM      30.00F
GATLINBURG     SUNNY     88  55  33 VRB6      30.00F
MORRISTOWN     SUNNY     86  57  37 CALM      30.02F
JACKSBORO      SUNNY     86  61  42 CALM      30.06F
$$

TNZ083-085-099-242300-
SOUTHEAST TENNESSEE

CITY           SKY/WX    TMP DP  RH WIND       PRES   REMARKS
CHATTANOOGA    PTSUNNY   84  62  47 CALM      30.01F
DAYTON         PTCLDY    84  70  61 CALM      30.00F
$$

SKY/WX REPORTED AS FAIR MEANS FEW OR NO CLOUDS BELOW
12 THOUSAND FEET.





USA.gov is the U.S. government's official web portal to all federal, state and local government web resources and services.